Weather History for Champaign, IL

Change the Weather History Date:

Friday, December 7, 2012

  Actual Average Record
Temperature  
Mean Temperature 45 °F 31 °F  
Max Temperature 47 °F 39 °F 53 °F (2004)
Min Temperature 43 °F 24 °F -4 °F (2005)
Degree Days  
Heating Degree Days 20 34  
Month to date heating degree days 109 226  
Since 1 July heating degree days 1302 1390  
Cooling Degree Days 0 0  
Month to date cooling degree days 0 0  
Year to date cooling degree days 1290 945  
Moisture  
Dew Point 44 °F    
Average Humidity 92    
Maximum Humidity 100    
Minimum Humidity 83    
Precipitation  
Precipitation 0.32 in 0.08 in 1.05 in (2004)
Month to date precipitation 0.58 0.61  
Year to date precipitation 27.11 37.81  
Sea Level Pressure  
Sea Level Pressure 29.91 in    
Wind  
Wind Speed 6 mph (ENE)    
Max Wind Speed 16 mph    
Max Gust Speed 21 mph    
Visibility 2 miles    
Events Fog , Rain    
T = Trace of Precipitation, MM = Missing Value Source: NWS Daily Summary

Daily Weather History Graph

Daily Weather History Graph

Search for Another Location

Airport:

Trip Planner

Search our weather history database for the weather conditions in past years. The results will help you decide how hot, cold, wet, or windy it might be!

Date:

Astronomy

Dec. 07, 2012 Rise Set
Actual Time 7:02 AM CST 4:27 PM CST
Civil Twilight 6:31 AM CST 4:57 PM CST
Nautical Twilight 5:57 AM CST 5:31 PM CST
Astronomical Twilight 5:24 AM CST 6:04 PM CST
Moon 12:20 AM CST (12/7) 12:24 PM CST (12/7)
Length of Visible Light 10h 26m
Length of Day
9h 25m
Last Quarter, 38% of the Moon is Illuminated
Dec 7
Last Quarter
Dec 13
New
Dec 19
First Quarter
Dec 28
Full
Jan 4
Last Quarter

Hourly Weather History & Observations

Time (CST) Temp. Windchill Dew Point Humidity Pressure Visibility Wind Dir Wind Speed Gust Speed Precip Events Conditions
12:53 AM 44.1 °F - 41.0 °F 89% 29.96 in 5.0 mi Calm Calm - 0.01 in Rain Light Rain
1:53 AM 44.1 °F 39.5 °F 42.1 °F 93% 29.96 in 5.0 mi SSW 8.1 mph - 0.01 in Rain Light Rain
2:53 AM 43.0 °F 39.5 °F 42.1 °F 97% 29.97 in 3.0 mi NW 5.8 mph - 0.00 in   Mostly Cloudy
3:53 AM 44.1 °F - 42.1 °F 93% 29.94 in 3.0 mi Calm Calm - 0.01 in Rain Light Rain
4:33 AM 42.8 °F - 42.8 °F 100% 29.94 in 2.5 mi Calm Calm - 0.00 in Rain Light Rain
4:53 AM 43.0 °F - 42.1 °F 97% 29.96 in 2.5 mi Calm Calm - 0.01 in Rain Light Rain
5:53 AM 44.1 °F 41.5 °F 43.0 °F 96% 29.94 in 3.0 mi NE 4.6 mph - 0.02 in Rain Light Rain
6:37 AM 44.6 °F 39.7 °F 42.8 °F 93% 29.92 in 2.5 mi NNE 9.2 mph - 0.04 in Rain Rain
6:48 AM 44.6 °F 42.2 °F 42.8 °F 93% 29.93 in 3.0 mi East 4.6 mph - 0.05 in Rain Light Rain
6:53 AM 45.0 °F 41.2 °F 43.0 °F 93% 29.94 in 3.0 mi East 6.9 mph - 0.05 in Rain Light Rain
7:53 AM 44.1 °F 39.0 °F 43.0 °F 96% 29.92 in 2.0 mi ESE 9.2 mph - 0.03 in Rain Light Rain
8:08 AM 44.6 °F 38.4 °F 42.8 °F 93% 29.91 in 1.8 mi ESE 12.7 mph - 0.00 in Rain Light Rain
8:27 AM 44.6 °F 38.4 °F 42.8 °F 93% 29.92 in 2.5 mi SE 12.7 mph - 0.00 in Rain Light Rain
8:48 AM 44.6 °F 37.8 °F 42.8 °F 93% 29.92 in 1.5 mi SE 15.0 mph - 0.02 in Rain Light Rain
8:53 AM 45.0 °F 38.2 °F 43.0 °F 93% 29.94 in 1.5 mi SE 15.0 mph - 0.02 in Rain Rain
9:25 AM 46.4 °F 40.7 °F 44.6 °F 93% 29.93 in 2.0 mi SE 12.7 mph - 0.01 in Rain Light Rain
9:51 AM 46.4 °F 42.4 °F 44.6 °F 93% 29.94 in 2.0 mi ESE 8.1 mph - 0.02 in Rain Light Rain
9:53 AM 46.0 °F 42.5 °F 45.0 °F 96% 29.95 in 2.0 mi ESE 6.9 mph - 0.02 in Rain Light Rain
10:00 AM 46.4 °F 41.5 °F 44.6 °F 93% 29.94 in 2.0 mi ESE 10.4 mph - 0.00 in Rain Light Rain
10:48 AM 46.4 °F 42.9 °F 44.6 °F 93% 29.92 in 2.0 mi East 6.9 mph - 0.00 in   Overcast
10:53 AM 46.9 °F - 45.0 °F 93% 29.93 in 2.0 mi East 6.9 mph - 0.00 in   Overcast
11:04 AM 46.4 °F 43.5 °F 44.6 °F 93% 29.91 in 2.0 mi East 5.8 mph - N/A   Overcast
11:39 AM 46.4 °F - 44.6 °F 93% 29.91 in 1.8 mi Calm Calm - 0.00 in Rain Light Rain
11:53 AM 46.9 °F - 45.0 °F 93% 29.91 in 1.5 mi North 5.8 mph - 0.01 in Rain Light Rain
12:53 PM 46.9 °F - 45.0 °F 93% 29.88 in 1.5 mi NE 8.1 mph - 0.01 in   Overcast
1:38 PM 46.4 °F 41.9 °F 44.6 °F 93% 29.84 in 0.8 mi NE 9.2 mph - 0.01 in Rain Light Rain
1:53 PM 46.9 °F - 45.0 °F 93% 29.85 in 0.8 mi NNE 6.9 mph - 0.01 in Rain Light Rain
2:53 PM 46.9 °F - 45.0 °F 93% 29.86 in 1.0 mi NNE 9.2 mph - 0.03 in Rain Light Rain
3:53 PM 46.0 °F 41.0 °F 45.0 °F 96% 29.85 in 1.0 mi NNE 10.4 mph - 0.04 in Rain Light Rain
4:53 PM 46.0 °F 41.4 °F 45.0 °F 96% 29.86 in 1.0 mi NNE 9.2 mph - 0.03 in Rain Light Rain
5:53 PM 46.0 °F 42.5 °F 44.1 °F 93% 29.86 in 2.5 mi NE 6.9 mph - 0.01 in   Overcast
6:53 PM 46.0 °F 41.9 °F 44.1 °F 93% 29.87 in 2.0 mi NE 8.1 mph - N/A   Overcast
7:50 PM 46.4 °F 44.3 °F 44.6 °F 93% 29.87 in 1.8 mi NE 4.6 mph - 0.00 in Rain Light Rain
7:53 PM 46.0 °F 43.9 °F 45.0 °F 96% 29.88 in 1.8 mi NE 4.6 mph - 0.00 in   Overcast
8:53 PM 46.0 °F 43.1 °F 44.1 °F 93% 29.87 in 1.8 mi ENE 5.8 mph - 0.00 in   Overcast
9:53 PM 46.0 °F 43.1 °F 44.1 °F 93% 29.86 in 1.8 mi ENE 5.8 mph - N/A   Overcast
10:53 PM 46.0 °F 43.9 °F 44.1 °F 93% 29.86 in 1.5 mi NE 4.6 mph - N/A   Overcast
11:45 PM 46.4 °F - 44.6 °F 93% 29.86 in 0.8 mi Calm Calm - N/A   Overcast
11:53 PM 45.0 °F - 45.0 °F 100% 29.87 in 0.5 mi Calm Calm - N/A Fog Fog